TimeCST,TemperatureF,Dew PointF,Humidity,Sea Level PressureIn,VisibilityMPH,Wind Direction,Wind SpeedMPH,Gust SpeedMPH,PrecipitationIn,Events,Conditions,WindDirDegrees,DateUTC
12:52 AM,21.9,14.0,72,30.01,-9999.0,WSW,5.8,-,N/A,,Unknown,240,2013-01-31 06:52:00
1:52 AM,21.9,14.0,72,30.01,-9999.0,Variable,5.8,-,N/A,,Unknown,0,2013-01-31 07:52:00
2:52 AM,21.9,14.0,72,30.02,-9999.0,Variable,5.8,-,N/A,,Unknown,0,2013-01-31 08:52:00
3:52 AM,21.9,12.9,68,30.01,-9999.0,West,6.9,-,N/A,,Unknown,280,2013-01-31 09:52:00
4:52 AM,21.9,12.9,68,30.02,-9999.0,Variable,3.5,-,N/A,,Unknown,0,2013-01-31 10:52:00
5:52 AM,21.0,12.0,68,30.03,-9999.0,NW,8.1,-,N/A,,Unknown,310,2013-01-31 11:52:00
6:52 AM,21.0,12.0,68,30.06,-9999.0,NW,5.8,-,N/A,,Unknown,320,2013-01-31 12:52:00
7:52 AM,17.1,7.0,65,30.10,-9999.0,NW,10.4,-,N/A,,Unknown,320,2013-01-31 13:52:00
8:52 AM,16.0,5.0,62,30.13,-9999.0,NW,12.7,19.6,N/A,,Unknown,310,2013-01-31 14:52:00
9:52 AM,16.0,3.0,57,30.17,-9999.0,WNW,11.5,19.6,N/A,,Unknown,300,2013-01-31 15:52:00
10:52 AM,15.1,1.0,54,30.21,-9999.0,WNW,15.0,21.9,N/A,,Unknown,300,2013-01-31 16:52:00
11:52 AM,15.1,1.0,54,30.23,-9999.0,WNW,15.0,21.9,N/A,,Unknown,300,2013-01-31 17:52:00
12:52 PM,15.1,1.0,54,30.26,-9999.0,NW,17.3,28.8,N/A,,Unknown,310,2013-01-31 18:52:00
1:52 PM,16.0,1.9,54,30.29,-9999.0,NW,13.8,21.9,N/A,,Unknown,310,2013-01-31 19:52:00
2:52 PM,15.1,1.9,56,30.31,-9999.0,NW,10.4,21.9,N/A,,Unknown,320,2013-01-31 20:52:00
3:52 PM,12.9,1.9,62,30.34,-9999.0,NW,11.5,23.0,N/A,,Unknown,310,2013-01-31 21:52:00
4:52 PM,10.9,-2.0,56,30.38,-9999.0,NW,10.4,24.2,N/A,,Unknown,320,2013-01-31 22:52:00
5:52 PM,10.0,-2.9,56,30.40,-9999.0,NW,15.0,21.9,N/A,,Unknown,310,2013-01-31 23:52:00
6:52 PM,9.0,-4.0,56,30.44,-9999.0,NW,10.4,21.9,N/A,,Unknown,320,2013-02-01 00:52:00
7:52 PM,8.1,-4.0,58,30.47,-9999.0,NW,10.4,-,N/A,,Unknown,310,2013-02-01 01:52:00
8:52 PM,7.0,-5.1,58,30.49,-9999.0,NW,8.1,-,N/A,,Unknown,310,2013-02-01 02:52:00
9:52 PM,6.1,-5.1,60,30.51,-9999.0,NW,6.9,-,N/A,,Unknown,310,2013-02-01 03:52:00
10:52 PM,5.0,-6.0,61,30.54,-9999.0,West,4.6,-,N/A,,Unknown,270,2013-02-01 04:52:00
11:52 PM,5.0,-5.1,63,30.56,-9999.0,Variable,4.6,-,N/A,,Unknown,0,2013-02-01 05:52:00